• In Belarus
  • List of Countries
  • For 7 days
  • Water Temperature
  • Satellite Maps
  • Weather Map
  • Weather Widgets
  • user-avatar
    Login

    Hourly Weather Solden

    Today, 21 January, Sunday

    Time Temperature Precipitation Wind Pressure Humidity
    00:00 -12°C° 1.2 mm 2 mps 568 mmHg 93%
    01:00 -10°C° 1.2 mm 2 mps 568 mmHg 93%
    02:00 -10°C° 1.3 mm 2 mps 568 mmHg 93%
    03:00 -9°C° 1.3 mm 2 mps 568 mmHg 94%
    04:00 -9°C° 1.3 mm 2 mps 568 mmHg 94%
    05:00 -9°C° 0.9 mm 2 mps 569 mmHg 93%
    06:00 -8°C° 0.9 mm 2 mps 569 mmHg 92%
    07:00 -9°C° 0.9 mm 3 mps 570 mmHg 91%
    08:00 -9°C° 0.4 mm 3 mps 571 mmHg 90%
    09:00 -9°C° 0.4 mm 3 mps 571 mmHg 88%
    10:00 -9°C° 0.4 mm 3 mps 572 mmHg 87%
    11:00 -9°C° 0.2 mm 3 mps 573 mmHg 83%
    12:00 -9°C° 0.2 mm 3 mps 573 mmHg 80%
    13:00 -9°C° 0.2 mm 3 mps 574 mmHg 77%
    14:00 -9°C° 0.1 mm 3 mps 574 mmHg 78%
    15:00 -10°C° 0.1 mm 3 mps 574 mmHg 79%
    16:00 -12°C° 0.1 mm 3 mps 574 mmHg 80%
    17:00 -13°C° 0 mm 3 mps 574 mmHg 81%
    18:00 -15°C° 0 mm 3 mps 574 mmHg 82%
    19:00 -16°C° 0 mm 3 mps 574 mmHg 83%
    20:00 -15°C° 0.1 mm 2 mps 574 mmHg 83%
    21:00 -14°C° 0.1 mm 2 mps 575 mmHg 83%
    22:00 -14°C° 0.1 mm 2 mps 575 mmHg 83%
    23:00 -13°C° 0.3 mm 2 mps 575 mmHg 84%

    Tomorrow, 22 January, Monday

    Time Temperature Precipitation Wind Pressure Humidity
    00:00 -13°C° 0.3 mm 2 mps 575 mmHg 85%
    01:00 -10°C° 0.3 mm 1 mps 576 mmHg 85%
    02:00 -10°C° 0.9 mm 2 mps 575 mmHg 87%
    03:00 -10°C° 0.9 mm 2 mps 575 mmHg 88%
    04:00 -9°C° 0.9 mm 2 mps 575 mmHg 89%
    05:00 -9°C° 1.5 mm 2 mps 575 mmHg 90%
    06:00 -9°C° 1.5 mm 2 mps 575 mmHg 90%
    07:00 -8°C° 1.5 mm 2 mps 575 mmHg 91%
    08:00 -8°C° 1.4 mm 2 mps 576 mmHg 91%
    09:00 -7°C° 1.4 mm 2 mps 576 mmHg 91%
    10:00 -4°C° 1.4 mm 1 mps 577 mmHg 90%
    11:00 -5°C° 0.9 mm 2 mps 577 mmHg 91%
    12:00 -4°C° 0.9 mm 2 mps 577 mmHg 92%
    13:00 -4°C° 0.9 mm 2 mps 578 mmHg 93%
    14:00 -4°C° 0.5 mm 2 mps 578 mmHg 92%
    15:00 -3°C° 0.5 mm 2 mps 578 mmHg 92%
    16:00 -3°C° 0.5 mm 2 mps 578 mmHg 92%
    17:00 -4°C° 0.1 mm 2 mps 578 mmHg 91%
    18:00 -5°C° 0.1 mm 2 mps 578 mmHg 90%
    19:00 -5°C° 0.1 mm 2 mps 578 mmHg 90%
    20:00 -6°C° 0 mm 2 mps 578 mmHg 89%
    21:00 -6°C° 0 mm 2 mps 578 mmHg 89%
    22:00 -7°C° 0 mm 2 mps 578 mmHg 88%
    23:00 -8°C° 0 mm 2 mps 578 mmHg 88%

    Day after tomorrow, 23 January, Tuesday

    Time Temperature Precipitation Wind Pressure Humidity
    00:00 -8°C° 0 mm 2 mps 578 mmHg 88%
    01:00 -9°C° 0 mm 2 mps 578 mmHg 88%
    02:00 -9°C° 0 mm 2 mps 579 mmHg 88%
    03:00 -9°C° 0 mm 2 mps 579 mmHg 88%
    04:00 -9°C° 0 mm 2 mps 579 mmHg 88%
    05:00 -10°C° 0 mm 2 mps 579 mmHg 87%
    06:00 -10°C° 0 mm 2 mps 580 mmHg 87%
    07:00 -10°C° 0 mm 2 mps 580 mmHg 86%
    08:00 -9°C° 0 mm 2 mps 581 mmHg 84%
    09:00 -8°C° 0 mm 2 mps 582 mmHg 82%
    10:00 -6°C° 0 mm 2 mps 583 mmHg 80%
    11:00 -5°C° 0 mm 2 mps 583 mmHg 81%
    12:00 -4°C° 0 mm 2 mps 584 mmHg 82%
    13:00 -1°C° 0 mm 1 mps 584 mmHg 83%
    14:00 -1°C° 0 mm 1 mps 584 mmHg 83%
    15:00 -2°C° 0 mm 1 mps 584 mmHg 83%
    16:00 -2°C° 0 mm 1 mps 584 mmHg 82%
    17:00 -4°C° 0 mm 1 mps 583 mmHg 78%
    18:00 -7°C° 0 mm 1 mps 583 mmHg 74%
    19:00 -9°C° 0 mm 1 mps 583 mmHg 70%
    20:00 -9°C° 0 mm 1 mps 583 mmHg 66%
    21:00 -9°C° 0 mm 1 mps 583 mmHg 63%
    22:00 -9°C° 0 mm 1 mps 583 mmHg 60%
    23:00 -9°C° 0 mm 1 mps 583 mmHg 59%

    24 January, Wednesday

    Time Temperature Precipitation Wind Pressure Humidity
    00:00 -9°C° 0 mm 1 mps 583 mmHg 58%
    01:00 -9°C° 0 mm 1 mps 583 mmHg 57%
    02:00 -9°C° 0 mm 1 mps 583 mmHg 58%
    03:00 -9°C° 0 mm 1 mps 583 mmHg 59%
    04:00 -9°C° 0 mm 1 mps 583 mmHg 59%
    05:00 -9°C° 0 mm 1 mps 583 mmHg 60%
    06:00 -9°C° 0 mm 1 mps 583 mmHg 61%
    07:00 -9°C° 0 mm 1 mps 583 mmHg 61%
    08:00 -7°C° 0 mm 1 mps 584 mmHg 64%
    09:00 -4°C° 0 mm 1 mps 585 mmHg 66%
    10:00 -3°C° 0 mm 1 mps 586 mmHg 69%
    11:00 -2°C° 0 mm 1 mps 586 mmHg 74%
    12:00 -1°C° 0 mm 1 mps 586 mmHg 80%
    13:00 0°C° 0 mm 1 mps 586 mmHg 86%
    14:00 0°C° 0 mm 1 mps 586 mmHg 85%
    15:00 -1°C° 0 mm 1 mps 585 mmHg 84%
    16:00 -1°C° 0 mm 1 mps 585 mmHg 84%
    17:00 -3°C° 0 mm 1 mps 584 mmHg 81%
    18:00 -4°C° 0 mm 1 mps 584 mmHg 79%
    19:00 -8°C° 0 mm 2 mps 583 mmHg 76%
    20:00 -8°C° 0 mm 2 mps 583 mmHg 75%
    21:00 -8°C° 0 mm 2 mps 583 mmHg 73%
    22:00 -8°C° 0 mm 2 mps 583 mmHg 72%
    23:00 -9°C° 0 mm 2 mps 583 mmHg 71%

    25 January, Thursday

    Time Temperature Precipitation Wind Pressure Humidity
    00:00 -9°C° 0 mm 2 mps 582 mmHg 70%
    01:00 -9°C° 0 mm 2 mps 582 mmHg 70%
    02:00 -9°C° 0 mm 2 mps 582 mmHg 69%
    03:00 -9°C° 0 mm 2 mps 581 mmHg 69%
    04:00 -9°C° 0 mm 2 mps 581 mmHg 69%
    05:00 -9°C° 0 mm 2 mps 581 mmHg 68%
    06:00 -9°C° 0 mm 2 mps 581 mmHg 68%
    07:00 -9°C° 0 mm 2 mps 581 mmHg 68%
    08:00 -8°C° 0 mm 2 mps 581 mmHg 70%
    09:00 -4°C° 0 mm 1 mps 582 mmHg 72%
    10:00 -3°C° 0 mm 1 mps 583 mmHg 74%
    11:00 -2°C° 0 mm 1 mps 583 mmHg 77%
    12:00 -1°C° 0 mm 1 mps 582 mmHg 81%
    13:00 -3°C° 0 mm 2 mps 582 mmHg 84%
    14:00 -1°C° 0 mm 1 mps 582 mmHg 86%
    15:00 -2°C° 0 mm 1 mps 581 mmHg 87%
    16:00 -2°C° 0 mm 1 mps 581 mmHg 89%
    17:00 -4°C° 0 mm 1 mps 580 mmHg 89%
    18:00 -6°C° 0 mm 1 mps 580 mmHg 89%
    19:00 -8°C° 0 mm 2 mps 579 mmHg 90%
    20:00 -9°C° 0 mm 2 mps 579 mmHg 89%
    21:00 -9°C° 0 mm 2 mps 578 mmHg 89%
    22:00 -9°C° 0 mm 2 mps 578 mmHg 89%
    23:00 -9°C° 0 mm 2 mps 578 mmHg 89%

    26 January, Friday

    Time Temperature Precipitation Wind Pressure Humidity
    00:00 -9°C° 0 mm 2 mps 578 mmHg 89%
    01:00 -9°C° 0 mm 2 mps 578 mmHg 89%
    02:00 -9°C° 0 mm 2 mps 577 mmHg 89%
    03:00 -9°C° 0 mm 2 mps 577 mmHg 89%
    04:00 -9°C° 0 mm 2 mps 577 mmHg 90%
    05:00 -9°C° 0 mm 2 mps 577 mmHg 90%
    06:00 -9°C° 0 mm 2 mps 577 mmHg 90%
    07:00 -9°C° 0 mm 2 mps 577 mmHg 90%
    08:00 -8°C° 0 mm 2 mps 578 mmHg 90%
    09:00 -7°C° 0 mm 2 mps 578 mmHg 89%
    10:00 -6°C° 0 mm 2 mps 579 mmHg 89%
    11:00 -5°C° 0.1 mm 2 mps 579 mmHg 90%
    12:00 -4°C° 0.1 mm 2 mps 579 mmHg 91%
    13:00 -4°C° 0.1 mm 2 mps 579 mmHg 92%
    14:00 -4°C° 0.1 mm 2 mps 579 mmHg 92%
    15:00 -2°C° 0.1 mm 1 mps 579 mmHg 92%
    16:00 -2°C° 0.1 mm 1 mps 579 mmHg 93%
    17:00 -3°C° 0.2 mm 1 mps 579 mmHg 93%
    18:00 -6°C° 0.2 mm 2 mps 579 mmHg 92%
    19:00 -7°C° 0.2 mm 2 mps 579 mmHg 92%
    20:00 -7°C° 0.4 mm 2 mps 579 mmHg 92%
    21:00 -7°C° 0.4 mm 2 mps 580 mmHg 92%
    22:00 -7°C° 0.4 mm 2 mps 580 mmHg 92%
    23:00 -6°C° 0.3 mm 1 mps 580 mmHg 92%
    Show more